Location: H�lzlashof
(49.9453°N, 11.9460°E)
Time: 01:20:57
(UTC+00:00)

Daily predictions for brighter satellites

Satellite Brightness Start Highest point End
(mag) Time Altitude Azimuth Time Altitude Azimuth Time Altitude Azimuth
STARLINK-1105 3.0 00:00:06 10° WNW 00:03:12 73° NNE 00:06:17 10° ESE
STARLINK-1209 2.8 00:00:20 10° WNW 00:03:30 89° NNE 00:06:40 10° ESE
STARLINK-1247 3.0 00:01:00 10° WNW 00:04:08 74° NNE 00:07:15 10° ESE
STARLINK-1208 4.2 00:00:25 10° WNW 00:04:31 60° N 00:08:38 10° E
STARLINK-1227 3.0 00:01:28 10° WNW 00:04:35 74° NNE 00:07:40 10° ESE
ATLAS CENTAUR R/B 2.4 00:02:42 10° NW 00:04:51 42° NNE 00:08:45 10° ESE
STARLINK-1226 3.0 00:02:19 10° WNW 00:05:27 75° NNE 00:08:34 10° ESE
STARLINK-1215 3.0 00:03:16 10° WNW 00:06:24 75° NNE 00:09:31 10° ESE
STARLINK-1225 4.2 00:02:28 10° W 00:06:34 57° N 00:10:40 10° ENE
Nadezhda 2 Rocket 4.4 00:04:33 29° S 00:07:54 88° E 00:14:04 10° N
STARLINK-1217 2.9 00:05:01 10° WNW 00:08:09 77° NNE 00:11:16 10° ESE
STARLINK-1229 2.9 00:05:57 10° WNW 00:09:05 78° NNE 00:12:13 10° ESE
STARLINK-1271 4.1 00:05:25 10° WNW 00:09:33 62° NNE 00:13:40 10° E
STARLINK-1270 2.9 00:06:49 10° WNW 00:09:57 78° NNE 00:13:05 10° ESE
Cosmos 1726 3.8 00:07:35 10° NW 00:10:21 20° W 00:10:54 19° W
GEOS 3 Rocket 3.7 00:07:39 26° SSE 00:10:30 57° SW 00:15:44 10° NW
STARLINK-1230 4.3 00:07:27 10° W 00:11:33 56° N 00:15:39 10° ENE
Cosmos 2058 Rocket 3.0 00:07:20 10° N 00:11:46 89° WSW 00:13:46 33° S
STARLINK-1189 2.9 00:08:39 10° WNW 00:11:47 80° NNE 00:14:55 10° ESE
STARLINK-1188 2.9 00:09:32 10° WNW 00:12:40 81° NNE 00:15:47 10° ESE
Meteor 1-29 2.8 00:09:19 10° N 00:12:44 78° WNW 00:13:32 49° SSW
STARLINK-1235 2.7 00:10:14 10° WNW 00:13:21 87° SSW 00:16:26 10° ESE
STARLINK-1187 2.7 00:10:39 10° WNW 00:13:45 88° NNE 00:16:52 10° ESE
Cosmos 2228 3.5 00:10:09 10° NNW 00:14:14 45° W 00:15:32 34° SW
STARLINK-1154 4.1 00:10:25 10° WNW 00:14:33 63° NNE 00:18:40 10° E
COSMOS 2455 2.9 00:11:40 29° SSW 00:14:53 74° ESE 00:20:56 10° NE
STARLINK-1191 2.8 00:12:01 10° WNW 00:15:08 83° NNE 00:18:14 10° ESE
SJ 16-02 3.4 00:11:49 10° N 00:15:33 26° NE 00:19:17 10° ESE
STARLINK-1221 2.8 00:12:53 10° WNW 00:16:00 84° NNE 00:19:06 10° ESE
STARLINK-1243 4.3 00:12:27 10° W 00:16:33 56° N 00:20:38 10° ENE
STARLINK-1222 2.8 00:13:47 10° WNW 00:16:53 85° NNE 00:20:00 10° ESE
STARLINK-1214 2.8 00:14:41 10° WNW 00:17:48 86° NNE 00:20:54 10° ESE
Cosmos 1953 4.2 00:15:58 10° NW 00:18:32 17° W 00:19:26 16° WSW
STARLINK-1197 4.0 00:15:23 10° WNW 00:19:31 65° NNE 00:23:39 10° E
SL-14 R/B 3.3 00:18:39 37° S 00:20:03 72° E 00:23:55 10° NNE
Cosmos 1340 Rocket 4.4 00:17:15 10° NW 00:20:18 21° W 00:21:08 20° WSW
IRAS Rocket 4.2 00:17:53 26° S 00:21:04 70° WSW 00:26:39 10° NNW
STARLINK-1236 4.3 00:17:27 10° W 00:21:33 55° N 00:25:38 10° ENE
Cosmos 1300 2.6 00:19:42 10° N 00:23:34 90° SSW 00:25:04 35° S
Okean 1-7 Rocket 3.5 00:22:03 33° S 00:24:01 87° W 00:28:33 10° N
Cosmos 1174 3.3 00:23:33 49° SSW 00:24:19 78° SE 00:28:02 10° NE
STARLINK-1198 4.0 00:20:21 10° WNW 00:24:29 67° NNE 00:28:37 10° E
Cosmos 921 Rocket 3.5 00:23:34 28° SSE 00:25:25 48° ESE 00:29:34 10° NNE
BREEZE M DEB (TANK) 2.0 00:26:49 53° SE 00:26:49 53° SE 00:29:35 10° ESE
COSMOS 2487 3.6 00:24:17 10° NW 00:27:14 26° WSW 00:27:18 26° WSW
STARLINK-1199 3.9 00:25:22 10° WNW 00:29:31 69° NNE 00:33:39 10° E
STARLINK-1269 4.3 00:27:26 10° W 00:31:31 55° N 00:35:37 10° ENE
Meteor 2-16 Rocket 4.5 00:27:43 24° S 00:31:35 78° E 00:37:45 10° NNE
Cosmos 1626 Rocket 4.1 00:29:36 24° SSE 00:31:55 50° E 00:36:07 10° NNE
Cosmos 2219 3.7 00:26:49 10° NNW 00:32:29 62° ENE 00:38:03 10° SE
STARLINK-1210 3.9 00:30:20 10° WNW 00:34:29 71° NNE 00:38:38 10° E
Cosmos 1626 2.1 00:34:31 37° SSW 00:35:51 72° W 00:39:35 10° N
STARLINK-1200 4.3 00:32:27 10° W 00:36:32 55° N 00:40:38 10° ENE
STARLINK-60 3.1 00:36:27 47° S 00:36:56 53° SSE 00:40:04 10° ENE
Cosmos 1656 Rocket 4.4 00:33:51 18° WSW 00:37:50 46° NW 00:43:13 10° NNE
STARLINK-1219 3.8 00:35:19 10° WNW 00:39:28 74° NNE 00:43:37 10° ESE
Nadezhda 1 Rocket 4.0 00:34:51 10° N 00:41:01 89° ENE 00:45:52 18° S
STARLINK-1192 4.4 00:37:27 10° WNW 00:41:32 55° N 00:45:38 10° E
FALCON 9 R/B 3.9 00:38:25 23° SSW 00:42:20 33° SSE 00:59:55 10° ESE
STARLINK-1211 3.7 00:40:17 10° WNW 00:44:27 77° NNE 00:48:36 10° ESE
STARLINK-1244 4.3 00:42:26 10° WNW 00:46:31 55° N 00:50:36 10° E
MOZ.5/SAFIR/RUBIN 5/SL-8 3.7 00:44:16 24° S 00:47:06 74° WSW 00:51:45 10° NNW
UNK 3.7 00:44:01 19° SSE 00:47:22 86° ENE 00:52:00 10° NNW
Cosmos 2297 Rocket 2.6 00:42:30 10° NNW 00:48:09 66° ENE 00:53:45 10° SE
Cosmos 220 Rocket 4.3 00:46:16 26° S 00:48:35 60° ESE 00:52:58 10° NNE
STARLINK-1245 3.7 00:45:17 10° WNW 00:49:27 80° NNE 00:53:36 10° ESE
Cosmos 1812 Rocket 3.8 00:46:30 10° N 00:50:59 71° ENE 00:54:30 16° SSE
CZ-4B R/B 4.2 00:46:24 10° NNE 00:51:23 48° E 00:55:16 17° S
STARLINK-1138 4.3 00:47:26 10° WNW 00:51:31 55° N 00:55:36 10° E
SL-4 R/B 2.4 00:49:12 24° SW 00:52:02 63° SSE 00:56:42 10° ENE
Cosmos 1437 2.5 00:52:48 41° SSW 00:53:42 72° WNW 00:56:42 10° N
STARLINK-1203 4.4 00:50:02 10° WNW 00:54:11 56° N 00:58:20 10° E
STARLINK-1233 3.6 00:50:15 10° WNW 00:54:25 83° NNE 00:58:34 10° ESE
SL-19 R/B 4.5 00:51:08 10° N 00:56:24 59° WNW 01:00:03 21° SW
STARLINK-1143 4.3 00:52:25 10° WNW 00:56:31 56° N 01:00:37 10° E
STARLINK-1204 3.6 00:55:15 10° WNW 00:59:25 86° NNE 01:03:34 10° ESE
ATLAS CENTAUR R/B 1.6 00:56:56 22° SW 00:59:36 65° NW 01:03:41 10° NE
Timation 2 Rocket 4.2 00:53:48 10° NW 00:59:55 49° WSW 01:04:30 17° S
SL-16 R/B 2.5 00:56:01 15° S 01:01:11 72° WSW 01:07:23 10° NNW
STARLINK-1241 4.3 00:57:25 10° WNW 01:01:31 56° N 01:05:36 10° E
NOSS 3-4 (A) 3.9 00:57:30 14° WSW 01:02:44 57° NW 01:09:10 10° NE
NOSS 3-4 (C) 3.9 00:57:37 14° WSW 01:02:50 57° NW 01:09:17 10° NE
BREEZE-M R/B 3.4 01:01:07 25° SSW 01:02:51 35° SSE 01:05:39 10° E
FALCON 9 DEB 4.1 01:02:08 27° S 01:03:06 32° SE 01:06:14 10° E
STARLINK-1238 3.6 01:00:12 10° WNW 01:04:23 90° ESE 01:08:31 10° ESE
Cosmos 1602 Rocket 3.5 01:01:58 23° S 01:04:40 83° E 01:09:00 10° NNE
STARLINK-29 3.3 01:04:34 33° SSW 01:05:36 48° SSE 01:08:41 10° ENE
Cosmos 1455 2.7 01:02:15 10° N 01:05:59 57° ENE 01:09:23 12° SSE
STARLINK-1239 4.3 01:02:24 10° WNW 01:06:30 57° N 01:10:36 10° E
ATLAS 3B R/B 3.2 01:01:05 10° NW 01:07:15 38° WSW 01:12:43 14° S
BREEZE-M DEB (TANK) 3.8 01:09:29 15° SE 01:09:29 15° SE 01:10:41 10° ESE
STARLINK-1201 3.5 01:05:12 10° WNW 01:09:22 86° SSW 01:13:31 10° ESE
IRS-1D 4.3 01:05:24 10° NNE 01:10:37 49° E 01:15:16 12° S
CENTAUR R/B 4.2 01:04:29 10° WNW 01:10:43 24° WSW 01:14:47 17° SW
STARLINK-1240 4.3 01:07:24 10° WNW 01:11:31 58° N 01:15:37 10° E
GP-B 3.6 01:07:44 10° N 01:12:09 58° E 01:16:11 12° SSE
Meteor 2-1 Rocket 4.2 01:07:47 10° NNW 01:13:17 72° W 01:18:03 14° S
BREEZE-M DEB (TANK) 1.0 01:12:39 27° WSW 01:13:49 67° S 01:16:08 10° E
STARLINK-1206 3.5 01:10:11 10° WNW 01:14:21 82° SSW 01:18:30 10° ESE
Cosmos-2242 3.6 01:11:21 10° N 01:15:35 56° ENE 01:19:46 10° SSE
STARLINK-1216 4.2 01:12:23 10° WNW 01:16:30 59° N 01:20:36 10° E
Cosmos 1745 Rocket 4.1 01:12:45 19° SSW 01:17:13 64° WNW 01:23:20 10° N
STARLINK-1205 3.5 01:15:10 10° WNW 01:19:19 78° SSW 01:23:28 10° ESE
STARLINK-1237 4.2 01:17:23 10° WNW 01:21:30 60° N 01:25:37 10° E
RESURS DK-1 2.7 01:19:17 20° SW 01:21:59 56° NW 01:26:05 10° NNE
Cosmos 2181 Rocket 4.3 01:15:44 10° N 01:22:10 75° E 01:28:36 10° SSE
SL-08 R/B 4.1 01:18:05 10° SE 01:22:38 51° ENE 01:27:09 10° N
Cosmos 1356 Rocket 4.2 01:19:44 10° NNW 01:23:32 35° W 01:25:49 20° SSW
Cosmos 2227 Rocket 2.2 01:18:03 10° NNW 01:23:46 83° WSW 01:29:27 10° SSE
STARLINK-1218 3.5 01:20:08 10° WNW 01:24:17 74° SSW 01:28:25 10° ESE
CZ-2D R/B 2.2 01:20:57 10° N 01:26:13 71° WNW 01:30:15 17° SSW
STARLINK-1202 4.2 01:22:23 10° WNW 01:26:30 61° N 01:30:38 10° E
Cosmos 2369 Rocket 4.5 01:24:11 10° WNW 01:27:49 17° NNW 01:31:27 10° N
Cosmos 1763 Rocket 4.1 01:23:45 13° S 01:28:09 48° ESE 01:33:03 10° NNE
Cosmos 1697 Rocket 3.9 01:23:20 10° S 01:28:26 36° ESE 01:33:34 10° NE
ADEOS II 2.7 01:23:44 10° NNE 01:28:55 54° E 01:34:03 10° S
STARLINK-1254 3.5 01:25:07 10° WNW 01:29:16 70° SSW 01:33:23 10° SE
Cosmos 1703 3.8 01:26:47 13° S 01:30:15 56° E 01:34:09 10° NNE
ATLAS 2AS CENTAUR R/B 3.8 01:24:14 10° WSW 01:31:59 49° NNW 01:39:33 10° NE
STARLINK-1231 3.5 01:30:08 10° WNW 01:34:15 66° SSW 01:38:21 10° SE
STARLINK-1228 4.2 01:33:02 10° W 01:35:43 22° SW 01:38:23 10° SSE
Resurs 1-4 Rocket 2.4 01:30:45 10° N 01:35:56 58° WNW 01:40:11 15° SW
STARLINK-1246 4.1 01:32:21 10° WNW 01:36:29 64° NNE 01:40:36 10° E
STARLINK-1234 4.1 01:34:28 10° W 01:36:55 21° SW 01:37:03 21° SW
STARLINK-1212 3.8 01:35:41 10° W 01:38:21 26° SW 01:41:01 10° SSE
STARLINK-1105 3.8 01:36:10 10° W 01:38:49 26° SW 01:41:27 10° SSE
STARLINK-1209 4.4 01:36:47 10° W 01:38:42 19° SW 01:38:42 19° SW
STARLINK-1232 3.6 01:35:07 10° WNW 01:39:13 62° SSW 01:43:19 10° SE
STARLINK-1247 3.8 01:37:04 10° W 01:39:44 26° SW 01:42:24 10° SSE
STARLINK-1227 3.9 01:37:33 10° W 01:40:11 25° SW 01:42:48 10° SSE
USA 81 4.2 01:36:19 15° SSW 01:40:36 61° W 01:45:52 10° N
ARIANE 5 R/B 3.5 01:36:10 10° NNE 01:41:01 43° E 01:45:47 10° S
STARLINK-1226 3.9 01:38:24 10° W 01:41:03 25° SW 01:43:40 10° SSE
STARLINK-1224 4.0 01:37:20 10° WNW 01:41:29 66° NNE 01:45:36 10° E
STARLINK-1215 3.9 01:39:22 10° W 01:41:59 25° SW 01:44:36 10° SSE
STARLINK-52 2.9 01:39:41 17° WSW 01:41:59 77° SSE 01:45:12 10° ENE
Cosmos 1758 Rocket 3.5 01:39:23 14° SSW 01:43:03 83° W 01:47:27 10° N
NPP 3.9 01:38:03 10° N 01:43:22 60° WNW 01:47:57 14° SW
STARLINK-1217 3.9 01:41:08 10° W 01:43:44 24° SW 01:46:19 10° SSE
STARLINK-1208 3.6 01:40:05 10° WNW 01:44:10 59° SSW 01:48:14 10° SE
STARLINK-1229 4.0 01:42:04 10° W 01:44:39 24° SW 01:47:14 10° SSE
H-2A R/B 3.3 01:41:15 10° SE 01:45:21 45° ENE 01:49:35 10° N
STARLINK-1270 4.0 01:42:56 10° W 01:45:31 23° SW 01:48:05 10° SSE
STARLINK-1225 4.0 01:42:19 10° WNW 01:46:29 68° NNE 01:50:37 10° E
STARLINK-1189 4.0 01:44:48 10° W 01:47:20 23° SW 01:49:52 10° SSE
STARLINK-1188 4.0 01:45:42 10° W 01:48:14 22° SW 01:50:45 10° SSE
STARLINK-1235 4.3 01:46:35 10° W 01:48:48 18° SW 01:51:00 10° S
Cosmos 1898 Rocket 3.6 01:43:34 10° NNW 01:48:52 63° WSW 01:54:05 10° S
STARLINK-1271 3.7 01:45:05 10° WNW 01:49:09 55° SSW 01:53:12 10° SE
STARLINK-1187 4.2 01:46:54 10° W 01:49:16 20° SW 01:51:36 10° S
STARLINK-1191 4.1 01:48:13 10° W 01:50:39 21° SW 01:53:06 10° SSE
Lacrosse 4 Rocket 2.0 01:46:31 10° NNW 01:50:52 62° NE 01:55:05 10° SE
STARLINK-1230 3.9 01:47:18 10° WNW 01:51:28 71° NNE 01:55:36 10° E
Starlink 7 placeholder 3.1 01:49:43 11° W 01:51:31 37° N 01:53:25 10° ENE
STARLINK-1221 4.1 01:49:06 10° W 01:51:32 21° SW 01:53:57 10° SSE
Meteor 1-21 Rocket 4.4 01:46:48 13° SSW 01:51:41 63° WNW 01:57:21 10° N
STARLINK-1222 4.1 01:50:01 10° W 01:52:25 21° SW 01:54:49 10° SSE
STARLINK-1214 4.2 01:50:56 10° W 01:53:19 20° SW 01:55:42 10° S
Cosmos 1656 3.7 01:48:20 13° SSW 01:53:25 90° ESE 01:59:05 10° NNE
STARLINK-1154 3.7 01:50:05 10° WNW 01:54:08 51° SSW 01:58:08 10° SE
IDEFIX/ARIANE 42P 4.2 01:49:35 10° NNE 01:54:18 32° E 01:58:58 10° SSE
SJ 16-02 1.8 01:50:06 10° NNW 01:54:19 43° WSW 01:58:30 10° S
Cosmos 2285 Rocket 4.0 01:47:56 10° NNW 01:54:22 84° WSW 02:00:42 10° SSE
CZ-4C R/B 2.9 01:50:43 11° SSW 01:55:22 44° ESE 02:01:00 10° NE
Cosmos 2084 3.7 01:52:18 13° SW 01:56:14 67° NW 02:00:42 10° NE
STARLINK-1243 3.9 01:52:17 10° WNW 01:56:27 73° NNE 02:00:35 10° ESE
Cosmos 468 Rocket 4.0 01:52:22 13° SSW 01:57:02 86° WNW 02:02:13 10° NNE
STARLINK-1197 3.8 01:55:04 10° WNW 01:59:05 48° SSW 02:03:04 10° SE
Cosmos 1937 Rocket 3.5 01:53:56 10° NNW 01:59:08 69° WSW 02:04:22 10° SSE
Cosmos 1953 Rocket 3.7 01:54:53 10° S 01:59:21 83° E 02:03:50 10° NNE
Meteor 2-10 Rocket 4.1 01:56:00 10° NNW 02:00:58 40° W 02:05:46 10° SSW
Uosat 12 SS-18 rocket 4.5 01:56:55 10° NW 02:01:13 67° NE 02:05:38 10° SE
COSMOS 2455 4.2 01:56:03 10° W 02:01:23 32° NW 02:06:45 10° NNE
STARLINK-1236 3.8 01:57:16 10° WNW 02:01:26 76° NNE 02:05:35 10° ESE
Cosmos 2369 4.1 01:56:11 10° S 02:01:43 59° ESE 02:07:16 10° NE
STARLINK-1198 3.9 02:00:02 10° WNW 02:04:00 45° SW 02:07:57 10° SE
Cosmos 1709 Rocket 4.4 02:01:48 11° SSW 02:07:26 49° WNW 02:13:24 10° N
STARLINK-1199 4.0 02:05:04 10° WNW 02:09:00 42° SW 02:12:54 10° SE
Iridium 2 4.1 02:06:41 10° N 02:10:26 64° E 02:14:10 10° SSE
STARLINK-1269 3.7 02:07:13 10° WNW 02:11:23 82° NNE 02:15:33 10° ESE
USA 129 4.3 02:11:29 10° ENE 02:12:35 13° E 02:13:33 10° ESE
STARLINK-60 3.7 02:09:58 10° W 02:13:07 52° N 02:16:17 10° ENE
STARLINK-1210 4.1 02:10:03 10° WNW 02:13:57 39° SW 02:17:49 10° SSE
Cosmos 2219 4.2 02:11:39 10° NW 02:16:12 26° WSW 02:20:44 10° SSW
STARLINK-1200 3.7 02:12:13 10° WNW 02:16:23 85° NNE 02:20:33 10° ESE
STARLINK-1320 3.1 02:14:52 11° SW 02:17:48 58° SSE 02:20:52 10° ENE
STARLINK-1322 3.1 02:15:11 11° SW 02:18:08 58° SSE 02:21:13 10° ENE
STARLINK-1324 3.1 02:15:32 11° SW 02:18:30 59° SSE 02:21:35 10° ENE
STARLINK-1294 3.1 02:15:47 11° SW 02:18:46 59° SSE 02:21:53 10° ENE
STARLINK-1219 4.1 02:15:04 10° WNW 02:18:53 37° SW 02:22:43 10° SSE
STARLINK-1261 3.1 02:16:10 11° SW 02:19:09 59° SSE 02:22:14 10° ENE
STARLINK-1325 3.0 02:16:30 11° SW 02:19:30 60° SSE 02:22:35 10° ENE
Nadezhda 3 Rocket 4.4 02:13:21 10° N 02:19:37 71° ENE 02:25:55 10° SSE
STARLINK-1333 3.0 02:16:48 10° SW 02:19:49 60° SSE 02:22:54 10° ENE
STARLINK-1334 3.0 02:17:07 10° SW 02:20:09 60° SSE 02:23:14 10° ENE
STARLINK-1326 3.0 02:17:28 10° SW 02:20:30 61° SSE 02:23:36 10° ENE
Cosmos 1980 Rocket 3.0 02:15:16 10° S 02:20:37 49° ESE 02:26:03 10° NE
STARLINK-1323 3.0 02:17:47 10° SW 02:20:50 61° SSE 02:23:55 10° ENE
STARLINK-1338 3.4 02:17:40 10° SW 02:21:04 59° SSE 02:24:31 10° ENE
STARLINK-1349 3.0 02:18:06 10° SW 02:21:10 61° SSE 02:24:15 10° ENE
STARLINK-1192 3.7 02:17:12 10° WNW 02:21:22 89° NNE 02:25:32 10° ESE
STARLINK-1336 3.0 02:18:28 10° SW 02:21:32 62° SSE 02:24:38 10° ENE
STARLINK-1331 3.0 02:18:45 10° SW 02:21:50 62° SSE 02:24:56 10° ENE
STARLINK-1344 3.0 02:19:06 10° SW 02:22:11 62° SSE 02:25:16 10° ENE
STARLINK-1343 3.0 02:19:26 10° SW 02:22:31 63° SSE 02:25:37 10° ENE
CZ-4B R/B 4.0 02:20:16 10° ESE 02:22:43 22° ENE 02:25:10 10° NNE
STARLINK-1346 3.0 02:19:46 10° SW 02:22:52 63° SSE 02:26:00 10° ENE
STARLINK-1328 3.0 02:20:08 10° SW 02:23:13 63° SSE 02:26:18 10° ENE
Cosmos 1328 4.4 02:19:30 10° SSW 02:23:18 42° WNW 02:27:07 10° N
STARLINK-1354 3.0 02:20:26 10° SW 02:23:31 64° SSE 02:26:37 10° ENE
STARLINK-1211 4.2 02:20:04 10° WNW 02:23:50 34° SW 02:27:35 10° SSE
STARLINK-1347 3.0 02:20:48 10° SW 02:23:53 64° SSE 02:26:59 10° ENE
STARLINK-1357 3.0 02:21:06 10° SW 02:24:12 64° SSE 02:27:18 10° ENE
STARLINK-1335 3.0 02:21:27 10° SW 02:24:33 65° SSE 02:27:39 10° ENE
STARLINK-1327 3.0 02:21:47 10° SW 02:24:52 65° SSE 02:27:59 10° ENE
ERS-2 2.3 02:21:27 10° S 02:25:02 52° WSW 02:28:40 10° NNW
STARLINK-1371 3.3 02:21:39 10° SW 02:25:06 63° SSE 02:28:35 10° ENE
STARLINK-1340 3.0 02:22:08 10° SW 02:25:14 65° SSE 02:28:20 10° ENE
STARLINK-1356 3.0 02:22:28 10° SW 02:25:34 66° SSE 02:28:41 10° ENE
STARLINK-1345 3.0 02:22:49 10° SW 02:25:55 66° SSE 02:29:01 10° ENE
ERBS 3.4 02:22:56 10° NW 02:26:11 48° NNE 02:29:28 10° ESE
STARLINK-1355 3.0 02:23:09 10° SW 02:26:14 66° SSE 02:29:21 10° ENE
STARLINK-1244 3.6 02:22:10 10° WNW 02:26:20 88° SSW 02:30:29 10° ESE
STARLINK-1321 2.9 02:23:28 10° WSW 02:26:33 67° SSE 02:29:40 10° ENE
STARLINK-1358 2.9 02:23:50 10° WSW 02:26:56 67° SSE 02:30:02 10° ENE
IRS-1C 4.3 02:21:50 10° N 02:27:08 64° WNW 02:32:24 10° SSW
STARLINK-1341 3.3 02:23:41 10° SW 02:27:08 64° SSE 02:30:37 10° ENE
STARLINK-1332 2.9 02:24:08 10° WSW 02:27:14 68° SSE 02:30:21 10° ENE
STARLINK-1348 2.9 02:24:30 10° WSW 02:27:36 68° SSE 02:30:43 10° ENE
STARLINK-1330 2.9 02:24:49 10° WSW 02:27:55 68° SSE 02:31:01 10° ENE
STARLINK-1363 2.9 02:25:09 10° WSW 02:28:15 69° SSE 02:31:21 10° ENE
STARLINK-1337 2.9 02:25:29 10° WSW 02:28:35 69° SSE 02:31:42 10° ENE
STARLINK-1245 4.3 02:25:05 10° WNW 02:28:47 32° SW 02:32:29 10° SSE
STARLINK-1342 2.9 02:25:50 10° WSW 02:28:56 69° SSE 02:32:03 10° ENE
STARLINK-1374 3.3 02:25:42 10° SW 02:29:11 66° SSE 02:32:41 10° ENE
STARLINK-1364 2.9 02:26:10 10° WSW 02:29:16 70° SSE 02:32:24 10° ENE
STARLINK-1376 2.9 02:26:32 10° WSW 02:29:38 70° SSE 02:32:44 10° ENE
STARLINK-1360 2.9 02:26:47 10° WSW 02:29:53 70° SSE 02:33:01 10° ENE
STARLINK-1361 2.9 02:27:13 10° WSW 02:30:20 71° SSE 02:33:27 10° ENE
STARLINK-1367 2.9 02:27:28 10° WSW 02:30:36 71° SSE 02:33:46 10° ENE
STARLINK-1366 2.9 02:27:52 10° WSW 02:30:58 71° SSE 02:34:05 10° ENE
STARLINK-1339 3.3 02:27:48 10° SW 02:31:16 68° SSE 02:34:46 10° ENE
STARLINK-1138 3.6 02:27:09 10° WNW 02:31:18 84° SSW 02:35:28 10° ESE
Cosmos 2297 Rocket 3.3 02:27:18 10° NW 02:31:43 24° WSW 02:36:07 10° SSW
SL-4 R/B 2.6 02:27:01 10° W 02:31:50 73° N 02:36:25 10° E
STARLINK-1377 3.2 02:29:53 10° WSW 02:33:22 70° SSE 02:36:52 10° ENE
STARLINK-1233 4.4 02:30:05 10° W 02:33:44 30° SW 02:37:21 10° SSE
STARLINK-1203 3.6 02:29:57 10° WNW 02:34:11 81° SSW 02:38:23 10° ESE
STARLINK-1353 3.2 02:31:46 10° WSW 02:35:14 72° SSE 02:38:42 10° ENE
Cosmos 2082 4.1 02:30:26 10° NW 02:35:43 41° WSW 02:40:57 10° S
STARLINK-1143 3.6 02:32:08 10° WNW 02:36:17 80° SSW 02:40:26 10° ESE
